Regional Weather Roundup
Issued by NWS Midland/Odessa, TX

Skip options and go directly to product.
Home | Oldest Version | Previous Version | Current Version | All | Text Only | Save Text | Print | Product List | Glossary On

Skip product version selection by date and time.   
453
ASUS44 KMAF 290110
RWRMAF
MIDLAND AREA WEATHER ROUNDUP
NATIONAL WEATHER SERVICE MIDLAND TX
800 PM CDT THU AUG 28 2014

...IN SOUTHWEST TEXAS AND SOUTHEAST NEW MEXICO...

CITY           SKY/WX    TMP DP  RH WIND       PRES   REMARKS
ALPINE         PTCLDY    78  60  52 S9        30.08S
ANDREWS        FAIR      84  64  50 E13G18    29.89S
ARTESIA        NOT AVBL
BIG SPRING     CLOUDY    84  57  39 SE9       29.88F THUNDER
CARLSBAD       CLEAR     93  53  25 NE5       29.88S
DRYDEN           N/A     89  65  44 SW22      29.87R
FORT STOCKTON  PTCLDY    86  58  38 S12       29.89F
GUAD PASS      CLEAR     83  39  21 W22G30    30.09S
HOBBS          CLEAR     90  46  22 W10       29.93S
MARFA          PTCLDY    81  55  41 E12       30.07S
MIDLAND AIRPK  NOT AVBL
MIDLAND INTL   PTCLDY    79  66  64 SE17      29.89F
ODESSA         PTCLDY    86  60  41 SE16      29.89F
PECOS          TSTM      80  63  56 SE17      29.84S
PRESIDIO       FAIR      95  56  26 CALM      29.87F
SEMINOLE       PTCLDY    88  56  33 SE15      29.91S
SNYDER         MOCLDY    91  60  34 S13G21    29.86S
WINK           CLEAR     97  51  21 S5        29.85R
$$
...OTHER STATIONS IN TEXAS...

CITY           SKY/WX    TMP DP  RH WIND       PRES   REMARKS
ABILENE        CLEAR     92  58  31 S13       29.85R
AMARILLO       MOCLDY    72  61  68 SE12      29.96S
AUSTIN         PTCLDY    85  70  60 S12       29.85R
BROWNSVILLE    PTCLDY    85  75  72 S9        29.77R
CORPUS CHRISTI MOCLDY    85  75  72 E20       29.81F
DALLAS FTW     PTCLDY    91  62  37 S9        29.83S
DEL RIO        CLEAR     96  60  30 SE8       29.79R
EL PASO        PTCLDY    91  48  22 N5        29.97S
HOUSTON INT    PTCLDY    82  73  74 SE8       29.89R
LUBBOCK        MOCLDY    81  64  56 S6        29.90R
SAN ANGELO     PTCLDY    92  57  30 SE8       29.84R
SAN ANTONIO    PTCLDY    87  70  56 E12       29.85R
WACO           CLEAR     88  65  46 SE14      29.84R
WICHITA FALLS  NOT AVBL
$$
...OTHER LOCATIONS IN NEW MEXICO...

CITY           SKY/WX    TMP DP  RH WIND       PRES   REMARKS
ALAMAGORDO     CLEAR     86  39  19 N8        30.00F
ALBUQUERQUE    PTCLDY    81  37  20 NW16      30.10S
CANNON AFB     CLEAR     85  41  21 NW9       29.98R
CLOVIS           N/A     84  39  20 W12       29.99S
HOLLOMAN AFB   CLEAR     88  42  20 N5        29.98F
ROSWELL        PTCLDY    92  49  22 W3        29.93R
RUIDOSO        CLEAR     70  39  32 NW7       30.22S
SANTA FE       CLEAR     74  40  29 N9        30.14S
TRUTH OR CONSE PTCLDY    83  45  26 E6        30.04F
TUCUMCARI      CLEAR     82  44  26 NE24G31   29.95R
$$

USA.gov is the U.S. government's official web portal to all federal, state and local government web resources and services.